SCP
0 0 0 0 0 0 0 0 0 0 0 0 0 0 0 0 0 0 0 0 0 0 0 -0 -0 -0 -0 0 0 0 0 0 0 0 0 0 -0 -0 -0 -0 -0 0 0
0 0 0 0 0 0 0 0 0 0 0 0 0 0 0 0 0 0 0 0 0 0 0 -0 -0 -0 -0 -0 -0 -0 0 0 0 0 0 0 -0 -0 -0 -0 -0 -0 -0
0 0 0 0 0 0 0 0 0 0 0 0 0 0 0 0 0 0 0 0 0 0 0 0 0 -0 0 -0 -0 -0 -0 -0 -0 0 0 -0 0 0 -0 -0 -0 -0 -0
0 0 0 0 0 0 0 0 0 0 0 0 0 0 0 0 0 0 0 0 0 0 0 0 0 0 0 0 0 0 0 0 0 -0 -0 -0 -0 -0 0 0 -0 -0 -0
0 0 0 0 0 0 0 0 0 0 0 0 0 0 0 0 0 0 0 0 0 0 0 0 0 0 0 0 0 0 0 0 0 0 0 0 -0 -0 -0 -0 -0 0 -0
0 0 0 0 0 0 0 0 0 0 0 0 0 0 0 0 -0 -0 0 0 0 0 0 0 0 0 0 0 0 0 0 0 0 0 0 0 0 0 0 0 0 -0 -0
0 0 0 0 0 0 0 0 0 0 0 0 0 0 0 0 -0 -0 0 0 0 0 0 0 0 0 0 0 0 0 0 0 0 0 0 0 0 0 0 0 0 0 0
0 0 0 0 0 0 0 0 0 0 0 0 0 0 0 0 -0 0 0 0 0 0 0 0 0 0 0 0 0 0 0 0 0 0 0 0 0 0 0 0 0 0 0
0 0 0 0 0 0 0 0 0 0 0 0 0 0 0 0 -0 0 0 0 0 0 0 0 0 0 0 0 0 0 0 0 0 0 0 0 0 0 0 0 0 0 0
0 0 0 0 0 0 0 0 0 0 0 0 0 0 0 0 0 0 0 0 0 0 0 0 0 0 0 0 0 0 0 0 0 0 0 0 0 0 0 0 0 0 0
0 0 0 0 0 0 0 0 0 0 0 0 0 0 0 0 0 0 0 0 0 0 0 0 0 0 0 0 0 0 0 0 0 0 0 0 0 0 0 0 0 0 0
0 0 0 0 0 0 0 0 0 0 0 0 0 0 0 0 0 0 0 0 0 0 0 0 0 0 0 0 0 0 0 0 -0 0 0 0 0 0 0 0 0 0 0
0 0 0 0 0 0 0 0 0 0 0 0 0 0 0 0 0 0 0 0 0 0 0 0 0 0 -0 0 0 0 0 0 0 0 0 0 0 0 0 0 0 0 0
0 0 0 0 0 0 0 0 0 0 0 0 0 0 0 0 0 0 0 0 0 0 0 0 0 0 0 0 0 0 0 0 0 0 0 0 0 0 0 0 0 0 0
0 0 0 0 0 0 0 0 0 0 0 0 0 0 0 0 0 0 0 0 0 0 0 -0 -0 0 0 0 0 0 0 0 0 0 0 0 0 0 0 0 0 0 0
0 0 0 0 0 0 0 0 0 0 0 0 0 0 0 0 0 0 0 0 0 0 0 -0 0 0 0 0 0 0 0 0 0 0 0 0 0 0 0 0 0 0 0
0 0 0 0 0 0 0 0 0 0 0 0 0 0 0 0 0 0 0 0 0 0 0 0 0 0 0 0 0 0 0 0 0 0 0 0 0 0 0 0 0 0 0
0 0 0 0 0 0 0 0 0 0 0 0 0 0 0 0 0 0 0 0 0 0 0 0 0 0 0 0 0 0 0 0 0 0 0 0 0 0 0 0 0 0 0
0 0 0 0 0 0 0 0 0 0 0 0 0 0 0 0 0 0 0 0 0 0 0 0 0 0 0 0 0 0 0 0 0 0 0 0 0 0 0 0 0 0 0
0 0 0 0 0 0 0 0 0 0 0 0 0 0 0 0 0 0 0 0 0 0 0 0 0 0 0 0 0 0 0 0 0 0 0 0 0 0 0 0 0 0 0
0 0 0 0 0 0 0 0 0 0 0 0 0 0 0 0 0 0 0 0 0 0 0 0 0 0 0 0 0 0 0 0 0 0 0 0 0 0 0 0 0 0 0
0 0 0 0 0 0 0 0 0 0 0 0 0 0 0 0 0 0 0 0 0 0 0 0 0 0 0 0 0 0 0 0 0 0 0 0 0 0 0 0 0 0 0
0 0 0 0 0 0 0 0 0 0 0 0 0 0 0 0 0 0 0 0 0 0 0 0 0 0 0 0 0 0 0 0 0 0 0 0 0 0 0 0 0 0 0
0 0 0 0 0 0 0 0 0 0 0 0 0 0 0 0 0 0 0 0 0 0 0 0 0 0 0 0 0 0 0 0 0 0 -0 -0 0 0 0 0 0 0 0
0 0 0 0 0 0 0 0 0 0 0 0 0 0 0 0 0 0 0 0 0 0 0 0 0 0 0 0 0 0 0 0 0 0 0 0 -0 -0 0 0 -0 0 0
0 0 0 0 0 0 0 0 0 0 0 0 0 0 0 0 0 0 0 0 0 0 0 0 0 0 0 0 0 0 0 0 0 0 0 0 0 0 0 0 0 0 0
Wind_Speed_500mb
14 11 6 3 4 7 12 17 21 24 26 28 31 34 38 43 47 51 56 60 64 66 68 71 72 71 72 70 69 68 70 69 80 101 98 99 101 97 95 93 85 78 74
21 15 10 7 9 13 17 22 27 30 33 35 37 41 45 49 54 60 64 68 72 74 76 78 82 85 85 83 82 81 79 77 79 95 98 100 99 98 99 96 95 93 89
24 18 16 15 16 20 23 28 32 36 40 41 43 48 52 57 62 66 70 73 75 77 79 81 81 82 86 86 81 82 76 71 70 77 101 82 90 95 97 98 97 96 97
29 26 24 24 27 29 29 33 39 44 48 50 51 55 58 62 67 71 75 79 82 83 84 85 85 85 85 83 83 83 76 65 67 72 81 77 68 70 78 86 96 89 93
34 31 31 34 37 37 37 39 44 48 51 51 51 55 57 62 66 71 75 78 80 82 84 86 85 84 82 77 71 71 65 66 70 69 76 74 68 60 59 62 69 74 83
38 36 39 43 46 46 43 45 46 50 55 55 56 59 63 67 70 72 73 77 78 81 85 86 84 81 76 72 66 59 56 62 69 72 78 78 80 70 70 71 76 80 89
46 46 50 53 53 50 47 47 48 54 59 59 59 62 66 68 70 73 75 78 80 82 81 79 78 73 68 65 64 58 55 53 55 62 75 78 83 63 65 74 76 76 100
52 56 58 58 55 50 48 48 53 57 61 60 61 63 66 67 71 74 76 79 79 77 73 71 68 67 64 60 60 65 62 60 60 61 67 74 73 66 62 68 75 79 83
51 55 56 57 56 54 52 53 55 58 62 61 61 63 66 68 71 72 74 75 75 73 69 64 66 68 66 55 61 73 78 78 75 65 64 66 66 61 57 64 72 75 87
42 47 56 60 59 59 55 52 55 60 63 61 62 63 65 69 67 69 69 67 68 68 69 73 72 66 61 62 67 72 78 80 81 80 78 79 80 81 73 66 71 78 84
41 48 57 62 62 58 55 54 56 61 63 61 63 62 65 67 65 63 61 55 59 66 70 75 75 64 62 64 68 80 88 90 90 93 95 90 85 76 70 79 77 74 82
53 55 60 60 58 58 56 56 63 64 62 61 63 64 64 62 60 57 56 42 47 56 67 74 74 72 71 67 66 67 67 70 78 81 85 90 90 87 86 83 78 78 81
59 59 58 56 56 57 58 60 64 60 59 60 63 65 65 60 56 52 49 52 48 55 64 62 62 71 73 72 66 61 66 62 59 62 69 75 77 78 75 79 82 83 86
58 58 55 55 56 57 59 61 59 54 56 58 59 60 61 61 55 51 53 60 59 61 70 72 65 62 58 56 54 52 51 50 51 55 59 64 65 63 62 58 60 62 72
56 54 55 55 55 57 59 57 55 51 54 56 54 55 57 58 52 44 48 51 54 60 59 60 61 58 55 52 50 48 48 48 49 49 55 61 62 61 65 62 60 60 65
55 56 56 56 56 58 59 55 50 53 52 50 46 44 45 48 43 40 42 45 51 52 53 55 52 52 53 55 56 55 52 51 50 51 52 55 58 61 66 69 68 67 73
53 54 56 57 57 58 55 54 55 45 48 44 44 45 44 42 35 36 38 39 41 44 45 46 48 50 52 55 57 58 59 54 52 52 54 54 54 57 59 63 65 67 72
56 59 60 60 60 58 55 54 54 54 52 37 37 43 42 37 37 30 37 39 39 36 39 42 45 48 51 54 57 60 61 58 54 55 55 54 54 54 58 62 64 67 70
55 57 58 58 58 57 57 56 55 53 49 46 39 32 39 39 32 32 32 36 41 41 42 41 43 46 50 52 54 58 61 61 58 60 57 57 55 54 56 55 58 61 63
54 56 58 58 59 59 58 57 53 51 49 44 41 34 34 40 33 26 26 31 34 37 41 42 42 44 48 50 53 56 61 62 64 67 64 60 56 52 54 55 54 55 54
54 55 59 61 60 57 56 55 52 50 47 44 40 34 34 39 37 33 31 32 36 38 43 44 44 44 45 47 50 53 57 62 66 73 68 60 56 54 50 49 48 46 43
56 56 57 59 57 55 54 52 51 50 46 45 38 32 33 35 37 36 35 37 39 39 43 46 45 44 43 44 46 50 53 59 64 72 66 58 54 50 47 45 43 40 36
55 54 52 51 51 52 53 51 49 47 44 41 37 34 31 34 35 37 39 41 42 40 40 41 44 41 38 38 37 41 45 50 57 63 59 55 50 47 43 40 38 36 34
45 44 45 45 46 47 48 44 42 41 39 37 35 34 33 34 36 39 40 43 41 38 37 37 38 37 35 34 33 31 35 38 49 51 49 48 46 43 39 36 35 32 31
34 34 34 36 37 39 38 37 37 36 37 37 35 35 36 38 39 39 39 40 37 36 33 32 32 31 31 30 29 29 32 30 43 41 40 40 40 38 38 37 35 31 29
28 29 30 32 36 35 35 35 36 36 36 36 36 37 38 37 36 34 36 36 34 33 32 29 27 27 26 26 27 27 27 26 38 34 33 34 35 36 37 38 37 37 35
Wind_Direction_500mb
194 199 207 242 308 333 336 336 333 331 329 325 325 326 325 326 325 325 325 325 325 323 322 321 318 314 310 306 301 296 292 289 287 288 288 289 288 289 289 290 288 285 281
214 217 227 255 291 313 325 329 328 325 323 322 320 320 323 324 326 327 327 326 325 322 321 319 317 315 312 309 306 302 297 293 290 290 290 290 289 290 288 286 287 285 283
221 226 243 262 281 295 308 316 321 323 322 319 318 322 324 326 326 326 325 324 321 319 316 313 311 308 305 305 304 302 300 296 292 291 292 292 290 289 289 289 288 284 284
223 235 251 264 276 284 296 309 317 320 319 317 317 320 322 323 323 322 321 319 318 316 314 310 307 306 305 303 300 297 295 292 291 289 289 289 288 292 292 292 292 292 287
231 244 259 268 274 280 289 300 305 312 315 313 312 315 317 318 319 319 319 317 316 314 311 308 307 306 305 303 301 298 296 291 287 287 286 289 287 289 288 291 288 293 290
238 252 262 269 273 276 281 288 294 305 311 311 311 315 317 320 321 321 321 319 317 314 312 311 311 310 308 305 300 292 288 288 288 286 283 281 281 282 281 276 278 283 285
246 255 263 266 268 272 277 285 294 302 307 307 310 313 316 320 321 322 322 319 316 314 312 311 312 313 312 311 304 298 293 288 283 285 283 281 283 286 283 282 280 275 277
251 260 264 266 266 268 276 285 292 298 303 303 306 310 315 321 322 322 320 317 314 314 314 317 318 318 319 310 308 304 302 302 300 292 290 293 295 299 298 297 298 297 293
260 267 269 269 263 265 272 281 287 295 299 298 303 310 316 320 321 319 318 316 315 314 319 324 324 323 320 305 304 303 303 300 299 291 286 282 283 282 282 283 281 283 282
272 277 272 267 263 264 270 279 288 294 297 298 303 310 315 319 321 320 319 316 315 319 324 324 323 317 309 302 299 298 296 297 300 299 298 297 298 297 292 280 277 272 278
274 277 271 264 262 266 272 280 287 295 296 297 303 311 315 317 319 319 321 320 323 323 315 314 316 315 309 306 302 296 293 299 293 290 285 287 289 291 286 286 282 272 271
266 267 265 263 264 269 276 282 289 295 292 295 302 307 312 316 320 322 326 321 316 312 315 316 318 319 311 304 299 297 298 296 286 287 286 284 285 286 287 286 281 274 271
262 263 263 264 266 272 277 283 289 290 288 294 301 307 312 316 321 327 328 330 324 321 315 314 304 304 305 305 308 305 304 302 297 292 284 285 289 291 290 287 286 284 281
262 264 266 268 271 275 280 286 286 284 286 293 301 306 310 317 328 326 331 332 328 324 311 314 319 317 314 312 308 305 306 308 308 302 298 298 299 300 300 299 291 285 282
264 268 269 271 273 276 281 283 282 283 288 294 300 306 314 315 320 323 318 321 321 311 315 326 329 328 329 329 328 328 325 325 322 319 317 317 314 310 306 306 300 296 285
269 270 272 274 277 281 284 281 278 283 287 294 298 296 298 299 307 311 315 315 307 314 326 330 335 342 345 344 342 337 337 336 334 329 325 323 323 317 310 308 302 289 287
267 270 273 276 279 280 277 276 278 272 282 288 292 292 292 297 299 308 309 312 315 323 325 334 342 346 348 350 350 347 342 340 338 335 332 329 325 319 315 310 306 299 294
268 271 274 276 276 275 274 274 277 282 287 284 282 286 289 291 300 303 305 312 316 319 327 336 341 344 348 349 350 350 349 346 343 340 335 333 329 324 319 316 313 307 305
272 274 275 273 272 271 271 273 275 278 284 288 286 278 282 290 294 296 300 310 317 324 329 335 340 342 344 345 347 350 351 350 352 347 340 337 334 329 325 322 318 315 312
277 276 274 272 271 270 270 271 272 276 279 282 281 283 277 282 286 285 296 305 311 318 323 328 336 337 338 341 344 348 350 351 355 351 345 341 338 334 332 330 328 325 319
279 276 274 273 272 271 269 269 272 273 275 275 275 274 275 280 292 297 301 306 310 316 317 322 329 331 333 335 340 346 348 350 356 352 345 343 342 339 338 336 336 334 332
284 281 278 276 275 272 271 270 270 270 271 270 269 265 267 274 282 290 297 302 306 311 312 316 321 324 328 331 335 342 345 349 355 351 345 346 346 346 345 344 346 347 348
288 285 281 277 275 273 270 270 268 266 265 264 266 265 264 271 278 285 294 299 301 306 307 310 311 316 321 325 330 338 343 348 354 349 347 350 351 353 353 353 355 358 1
302 296 290 284 279 276 274 270 264 262 262 263 264 268 272 275 280 287 293 296 299 302 305 308 308 311 317 323 327 334 344 346 354 347 351 355 358 0 2 5 7 9 12
317 311 302 294 288 283 277 271 265 262 262 264 267 270 273 278 284 288 292 292 297 300 305 306 306 309 313 320 324 328 340 347 353 346 355 0 5 10 15 18 19 20 23
317 313 309 302 297 291 282 277 273 270 269 270 272 275 276 280 282 286 287 289 294 297 301 302 303 305 311 318 321 320 332 352 345 346 356 2 7 15 20 26 29 35 40
Wind_Speed_850mb
14 11 6 3 4 7 12 17 21 24 26 28 31 34 38 43 47 51 56 60 64 66 68 71 72 71 72 70 69 68 70 69 80 101 98 99 101 97 95 93 85 78 74
21 15 10 7 9 13 17 22 27 30 33 35 37 41 45 49 54 60 64 68 72 74 76 78 82 85 85 83 82 81 79 77 79 95 98 100 99 98 99 96 95 93 89
24 18 16 15 16 20 23 28 32 36 40 41 43 48 52 57 62 66 70 73 75 77 79 81 81 82 86 86 81 82 76 71 70 77 101 82 90 95 97 98 97 96 97
29 26 24 24 27 29 29 33 39 44 48 50 51 55 58 62 67 71 75 79 82 83 84 85 85 85 85 83 83 83 76 65 67 72 81 77 68 70 78 86 96 89 93
34 31 31 34 37 37 37 39 44 48 51 51 51 55 57 62 66 71 75 78 80 82 84 86 85 84 82 77 71 71 65 66 70 69 76 74 68 60 59 62 69 74 83
38 36 39 43 46 46 43 45 46 50 55 55 56 59 63 67 70 72 73 77 78 81 85 86 84 81 76 72 66 59 56 62 69 72 78 78 80 70 70 71 76 80 89
46 46 50 53 53 50 47 47 48 54 59 59 59 62 66 68 70 73 75 78 80 82 81 79 78 73 68 65 64 58 55 53 55 62 75 78 83 63 65 74 76 76 100
52 56 58 58 55 50 48 48 53 57 61 60 61 63 66 67 71 74 76 79 79 77 73 71 68 67 64 60 60 65 62 60 60 61 67 74 73 66 62 68 75 79 83
51 55 56 57 56 54 52 53 55 58 62 61 61 63 66 68 71 72 74 75 75 73 69 64 66 68 66 55 61 73 78 78 75 65 64 66 66 61 57 64 72 75 87
42 47 56 60 59 59 55 52 55 60 63 61 62 63 65 69 67 69 69 67 68 68 69 73 72 66 61 62 67 72 78 80 81 80 78 79 80 81 73 66 71 78 84
41 48 57 62 62 58 55 54 56 61 63 61 63 62 65 67 65 63 61 55 59 66 70 75 75 64 62 64 68 80 88 90 90 93 95 90 85 76 70 79 77 74 82
53 55 60 60 58 58 56 56 63 64 62 61 63 64 64 62 60 57 56 42 47 56 67 74 74 72 71 67 66 67 67 70 78 81 85 90 90 87 86 83 78 78 81
59 59 58 56 56 57 58 60 64 60 59 60 63 65 65 60 56 52 49 52 48 55 64 62 62 71 73 72 66 61 66 62 59 62 69 75 77 78 75 79 82 83 86
58 58 55 55 56 57 59 61 59 54 56 58 59 60 61 61 55 51 53 60 59 61 70 72 65 62 58 56 54 52 51 50 51 55 59 64 65 63 62 58 60 62 72
56 54 55 55 55 57 59 57 55 51 54 56 54 55 57 58 52 44 48 51 54 60 59 60 61 58 55 52 50 48 48 48 49 49 55 61 62 61 65 62 60 60 65
55 56 56 56 56 58 59 55 50 53 52 50 46 44 45 48 43 40 42 45 51 52 53 55 52 52 53 55 56 55 52 51 50 51 52 55 58 61 66 69 68 67 73
53 54 56 57 57 58 55 54 55 45 48 44 44 45 44 42 35 36 38 39 41 44 45 46 48 50 52 55 57 58 59 54 52 52 54 54 54 57 59 63 65 67 72
56 59 60 60 60 58 55 54 54 54 52 37 37 43 42 37 37 30 37 39 39 36 39 42 45 48 51 54 57 60 61 58 54 55 55 54 54 54 58 62 64 67 70
55 57 58 58 58 57 57 56 55 53 49 46 39 32 39 39 32 32 32 36 41 41 42 41 43 46 50 52 54 58 61 61 58 60 57 57 55 54 56 55 58 61 63
54 56 58 58 59 59 58 57 53 51 49 44 41 34 34 40 33 26 26 31 34 37 41 42 42 44 48 50 53 56 61 62 64 67 64 60 56 52 54 55 54 55 54
54 55 59 61 60 57 56 55 52 50 47 44 40 34 34 39 37 33 31 32 36 38 43 44 44 44 45 47 50 53 57 62 66 73 68 60 56 54 50 49 48 46 43
56 56 57 59 57 55 54 52 51 50 46 45 38 32 33 35 37 36 35 37 39 39 43 46 45 44 43 44 46 50 53 59 64 72 66 58 54 50 47 45 43 40 36
55 54 52 51 51 52 53 51 49 47 44 41 37 34 31 34 35 37 39 41 42 40 40 41 44 41 38 38 37 41 45 50 57 63 59 55 50 47 43 40 38 36 34
45 44 45 45 46 47 48 44 42 41 39 37 35 34 33 34 36 39 40 43 41 38 37 37 38 37 35 34 33 31 35 38 49 51 49 48 46 43 39 36 35 32 31
34 34 34 36 37 39 38 37 37 36 37 37 35 35 36 38 39 39 39 40 37 36 33 32 32 31 31 30 29 29 32 30 43 41 40 40 40 38 38 37 35 31 29
28 29 30 32 36 35 35 35 36 36 36 36 36 37 38 37 36 34 36 36 34 33 32 29 27 27 26 26 27 27 27 26 38 34 33 34 35 36 37 38 37 37 35
Wind_Direction_850mb
194 199 207 242 308 333 336 336 333 331 329 325 325 326 325 326 325 325 325 325 325 323 322 321 318 314 310 306 301 296 292 289 287 288 288 289 288 289 289 290 288 285 281
214 217 227 255 291 313 325 329 328 325 323 322 320 320 323 324 326 327 327 326 325 322 321 319 317 315 312 309 306 302 297 293 290 290 290 290 289 290 288 286 287 285 283
221 226 243 262 281 295 308 316 321 323 322 319 318 322 324 326 326 326 325 324 321 319 316 313 311 308 305 305 304 302 300 296 292 291 292 292 290 289 289 289 288 284 284
223 235 251 264 276 284 296 309 317 320 319 317 317 320 322 323 323 322 321 319 318 316 314 310 307 306 305 303 300 297 295 292 291 289 289 289 288 292 292 292 292 292 287
231 244 259 268 274 280 289 300 305 312 315 313 312 315 317 318 319 319 319 317 316 314 311 308 307 306 305 303 301 298 296 291 287 287 286 289 287 289 288 291 288 293 290
238 252 262 269 273 276 281 288 294 305 311 311 311 315 317 320 321 321 321 319 317 314 312 311 311 310 308 305 300 292 288 288 288 286 283 281 281 282 281 276 278 283 285
246 255 263 266 268 272 277 285 294 302 307 307 310 313 316 320 321 322 322 319 316 314 312 311 312 313 312 311 304 298 293 288 283 285 283 281 283 286 283 282 280 275 277
251 260 264 266 266 268 276 285 292 298 303 303 306 310 315 321 322 322 320 317 314 314 314 317 318 318 319 310 308 304 302 302 300 292 290 293 295 299 298 297 298 297 293
260 267 269 269 263 265 272 281 287 295 299 298 303 310 316 320 321 319 318 316 315 314 319 324 324 323 320 305 304 303 303 300 299 291 286 282 283 282 282 283 281 283 282
272 277 272 267 263 264 270 279 288 294 297 298 303 310 315 319 321 320 319 316 315 319 324 324 323 317 309 302 299 298 296 297 300 299 298 297 298 297 292 280 277 272 278
274 277 271 264 262 266 272 280 287 295 296 297 303 311 315 317 319 319 321 320 323 323 315 314 316 315 309 306 302 296 293 299 293 290 285 287 289 291 286 286 282 272 271
266 267 265 263 264 269 276 282 289 295 292 295 302 307 312 316 320 322 326 321 316 312 315 316 318 319 311 304 299 297 298 296 286 287 286 284 285 286 287 286 281 274 271
262 263 263 264 266 272 277 283 289 290 288 294 301 307 312 316 321 327 328 330 324 321 315 314 304 304 305 305 308 305 304 302 297 292 284 285 289 291 290 287 286 284 281
262 264 266 268 271 275 280 286 286 284 286 293 301 306 310 317 328 326 331 332 328 324 311 314 319 317 314 312 308 305 306 308 308 302 298 298 299 300 300 299 291 285 282
264 268 269 271 273 276 281 283 282 283 288 294 300 306 314 315 320 323 318 321 321 311 315 326 329 328 329 329 328 328 325 325 322 319 317 317 314 310 306 306 300 296 285
269 270 272 274 277 281 284 281 278 283 287 294 298 296 298 299 307 311 315 315 307 314 326 330 335 342 345 344 342 337 337 336 334 329 325 323 323 317 310 308 302 289 287
267 270 273 276 279 280 277 276 278 272 282 288 292 292 292 297 299 308 309 312 315 323 325 334 342 346 348 350 350 347 342 340 338 335 332 329 325 319 315 310 306 299 294
268 271 274 276 276 275 274 274 277 282 287 284 282 286 289 291 300 303 305 312 316 319 327 336 341 344 348 349 350 350 349 346 343 340 335 333 329 324 319 316 313 307 305
272 274 275 273 272 271 271 273 275 278 284 288 286 278 282 290 294 296 300 310 317 324 329 335 340 342 344 345 347 350 351 350 352 347 340 337 334 329 325 322 318 315 312
277 276 274 272 271 270 270 271 272 276 279 282 281 283 277 282 286 285 296 305 311 318 323 328 336 337 338 341 344 348 350 351 355 351 345 341 338 334 332 330 328 325 319
279 276 274 273 272 271 269 269 272 273 275 275 275 274 275 280 292 297 301 306 310 316 317 322 329 331 333 335 340 346 348 350 356 352 345 343 342 339 338 336 336 334 332
284 281 278 276 275 272 271 270 270 270 271 270 269 265 267 274 282 290 297 302 306 311 312 316 321 324 328 331 335 342 345 349 355 351 345 346 346 346 345 344 346 347 348
288 285 281 277 275 273 270 270 268 266 265 264 266 265 264 271 278 285 294 299 301 306 307 310 311 316 321 325 330 338 343 348 354 349 347 350 351 353 353 353 355 358 1
302 296 290 284 279 276 274 270 264 262 262 263 264 268 272 275 280 287 293 296 299 302 305 308 308 311 317 323 327 334 344 346 354 347 351 355 358 0 2 5 7 9 12
317 311 302 294 288 283 277 271 265 262 262 264 267 270 273 278 284 288 292 292 297 300 305 306 306 309 313 320 324 328 340 347 353 346 355 0 5 10 15 18 19 20 23
317 313 309 302 297 291 282 277 273 270 269 270 272 275 276 280 282 286 287 289 294 297 301 302 303 305 311 318 321 320 332 352 345 346 356 2 7 15 20 26 29 35 40